Regional Weather Roundup
Issued by NWS Midland/Odessa, TX

Skip options and go directly to product.
Home | Oldest Version | Next Version | Current Version | All | Text Only | Save Text | Print | Product List | Glossary On

Skip product version selection by date and time.   
352
ASUS44 KMAF 302002
RWRMAF
MIDLAND AREA WEATHER ROUNDUP
NATIONAL WEATHER SERVICE MIDLAND TX
300 PM CDT THU OCT 30 2014

...IN SOUTHWEST TEXAS AND SOUTHEAST NEW MEXICO...

CITY           SKY/WX    TMP DP  RH WIND       PRES   REMARKS
ALPINE         SUNNY     81  35  19 N9        30.24F
ANDREWS        FAIR      78  35  21 N9        30.14F
ARTESIA        NOT AVBL
BIG SPRING     SUNNY     82  53  37 W8        30.12F
CARLSBAD       SUNNY     76  39  26 N14       30.18F
DRYDEN           N/A     83  60  45 CALM      30.07F
FORT STOCKTON  SUNNY     82  49  31 NW13      30.13F
GUAD PASS      NOT AVBL
HOBBS          SUNNY     75  43  31 N15G22    30.18F
MARFA          SUNNY     79  43  27 SE7       30.23F
MIDLAND AIRPK  SUNNY     83  43  24 W9        30.10F
MIDLAND INTL   SUNNY     84  43  23 NW6       30.10F
ODESSA         SUNNY     84  36  18 NW10      30.11F
PECOS          SUNNY     80  36  20 NW12G23   30.12F
PRESIDIO       FAIR      82  54  37 CALM      30.10F
SEMINOLE       SUNNY     76  43  30 NE10G17   30.16F
SNYDER         SUNNY     75  60  58 N3        30.12F
WINK           SUNNY     83  35  18 NW9       30.11F
$$
...OTHER STATIONS IN TEXAS...

CITY           SKY/WX    TMP DP  RH WIND       PRES   REMARKS
ABILENE        SUNNY     82  58  43 CALM      30.09F
AMARILLO       SUNNY     71  29  21 NE13G25   30.25F
AUSTIN         MOSUNNY   80  60  50 NE7       30.06F
BROWNSVILLE    MOSUNNY   87  67  51 E5        30.01F
CORPUS CHRISTI MOSUNNY   82  68  62 E15       30.03F
DALLAS FTW     MOSUNNY   77  50  38 VRB5      30.07F
DEL RIO        SUNNY     84  64  50 SE9       30.03F
EL PASO        SUNNY     80  37  21 N9        30.18F
HOUSTON INT    SUNNY     79  51  37 VRB3      30.07F
LUBBOCK        SUNNY     75  51  43 NE20G28   30.17S
SAN ANGELO     SUNNY     84  57  39 VRB3      30.06F
SAN ANTONIO    MOSUNNY   82  62  50 VRB5      30.06F
WACO           CLOUDY    69  52  54 S3        30.09F
WICHITA FALLS  NOT AVBL
$$
...OTHER LOCATIONS IN NEW MEXICO...

CITY           SKY/WX    TMP DP  RH WIND       PRES   REMARKS
ALAMAGORDO     NOT AVBL
ALBUQUERQUE    SUNNY     71  16  12 VRB3      30.30F
CANNON AFB     NOT AVBL
CLOVIS         SUNNY     73  27  17 NE23      30.28F
HOLLOMAN AFB   NOT AVBL
ROSWELL        SUNNY     78  34  20 N13       30.21F
RUIDOSO        SUNNY     64  27  24 SE8       30.38F
SANTA FE       SUNNY     69  12  11 S13       30.33F
TRUTH OR CONSE SUNNY     75  23  14 NE7G18    30.24F
TUCUMCARI      SUNNY     72  22  15 E16G26    30.27F
$$

USA.gov is the U.S. government's official web portal to all federal, state and local government web resources and services.